Powrót do katalogu

LEMUR 2 TILLINFINITY

AktywnyNaukaSSO
NORAD 63356·PAYLOAD·🇺🇸 United States

Wystrzelony Mar 26, 2025 z Rocket Lab Launch Complex 1

Loading…

Następne Przeloty (najbliższe 24 godziny)

TLE

ŚwieżeSource: Space-Track

Epoka: Sep 14, 2026, 05:49 UTC

1 63356U 25061F   26257.24284559  .00003035  00000-0  16400-3 0  9993
2 63356  97.5715 232.8022 0016311 303.4907  56.4766 15.15368967 81123

Śledź LEMUR 2 TILLINFINITY w czasie rzeczywistym z AllMySat

Download on the App Store